When you browse on this site, cookies collect data to enhance your experience and personalize the content and advertising you see.
Visit our Privacy Policy to learn more. By continuing to use the site, you agree to this use of cookies and data.
  • en Suisse
  • Liste des pays
  • À 7 jours
  • Température de l'eau
  • Carte satellitaire
  • Carte météo
  • Widgets météo
  • user-avatar
    Se connecter

    Météo par heure à Yangchun

    Ce jour, 26 Mai, Dimanche

    Heure Température Précipitation Vent Pression Humidité
    00:00 +27°C° 0 mm 1 m/s 752 mmHg 93%
    01:00 +24°C° 0 mm 0 m/s 752 mmHg 93%
    02:00 +24°C° 0 mm 0 m/s 752 mmHg 93%
    03:00 +26°C° 0 mm 1 m/s 752 mmHg 94%
    04:00 +26°C° 0 mm 1 m/s 752 mmHg 94%
    05:00 +27°C° 0 mm 1 m/s 752 mmHg 89%
    06:00 +28°C° 0 mm 1 m/s 752 mmHg 85%
    07:00 +30°C° 0 mm 1 m/s 753 mmHg 77%
    08:00 +32°C° 0 mm 2 m/s 752 mmHg 72%
    09:00 +34°C° 0 mm 3 m/s 752 mmHg 67%
    10:00 +35°C° 0 mm 3 m/s 752 mmHg 62%
    11:00 +35°C° 0.2 mm 4 m/s 752 mmHg 63%
    12:00 +35°C° 0.2 mm 4 m/s 751 mmHg 63%
    13:00 +35°C° 0 mm 4 m/s 751 mmHg 64%
    14:00 +35°C° 0.2 mm 4 m/s 751 mmHg 66%
    15:00 +35°C° 0.2 mm 4 m/s 751 mmHg 68%
    16:00 +34°C° 0.2 mm 4 m/s 750 mmHg 70%
    17:00 +33°C° 0 mm 3 m/s 751 mmHg 76%
    18:00 +30°C° 0 mm 2 m/s 751 mmHg 83%
    19:00 +29°C° 0 mm 2 m/s 751 mmHg 90%
    20:00 +29°C° 0.1 mm 1 m/s 751 mmHg 91%
    21:00 +28°C° 0.1 mm 1 m/s 752 mmHg 93%
    22:00 +28°C° 0.1 mm 1 m/s 752 mmHg 94%
    23:00 +28°C° 0.1 mm 1 m/s 752 mmHg 94%

    Demain, 27 Mai, Lundi

    Heure Température Précipitation Vent Pression Humidité
    00:00 +28°C° 0.1 mm 1 m/s 752 mmHg 94%
    01:00 +28°C° 0.1 mm 1 m/s 752 mmHg 94%
    02:00 +28°C° 0 mm 1 m/s 752 mmHg 94%
    03:00 +28°C° 0 mm 1 m/s 752 mmHg 93%
    04:00 +25°C° 0 mm 0 m/s 752 mmHg 93%
    05:00 +28°C° 0 mm 1 m/s 752 mmHg 89%
    06:00 +29°C° 0 mm 1 m/s 752 mmHg 84%
    07:00 +30°C° 0 mm 1 m/s 752 mmHg 79%
    08:00 +32°C° 0.1 mm 2 m/s 752 mmHg 74%
    09:00 +34°C° 0.1 mm 3 m/s 753 mmHg 69%
    10:00 +35°C° 0.1 mm 4 m/s 753 mmHg 65%
    11:00 +35°C° 0.6 mm 4 m/s 753 mmHg 65%
    12:00 +35°C° 0.6 mm 4 m/s 752 mmHg 65%
    13:00 +35°C° 0.6 mm 4 m/s 752 mmHg 65%
    14:00 +35°C° 0.3 mm 4 m/s 752 mmHg 67%
    15:00 +34°C° 0.3 mm 4 m/s 751 mmHg 68%
    16:00 +34°C° 0.3 mm 4 m/s 751 mmHg 70%
    17:00 +33°C° 0 mm 3 m/s 751 mmHg 75%
    18:00 +30°C° 0 mm 2 m/s 752 mmHg 80%
    19:00 +29°C° 0 mm 1 m/s 752 mmHg 85%
    20:00 +29°C° 0.1 mm 1 m/s 753 mmHg 86%
    21:00 +29°C° 0.1 mm 1 m/s 753 mmHg 88%
    22:00 +26°C° 0.1 mm 0 m/s 754 mmHg 90%
    23:00 +26°C° 0.1 mm 0 m/s 754 mmHg 91%

    Après-demain, 28 Mai, Mardi

    Heure Température Précipitation Vent Pression Humidité
    00:00 +26°C° 0.1 mm 0 m/s 753 mmHg 92%
    01:00 +26°C° 0.1 mm 0 m/s 753 mmHg 93%
    02:00 +26°C° 0.8 mm 0 m/s 753 mmHg 94%
    03:00 +26°C° 0.8 mm 0 m/s 753 mmHg 94%
    04:00 +25°C° 0.8 mm 0 m/s 752 mmHg 95%
    05:00 +26°C° 0.9 mm 0 m/s 753 mmHg 91%
    06:00 +27°C° 0.9 mm 0 m/s 753 mmHg 87%
    07:00 +28°C° 0.9 mm 0 m/s 754 mmHg 83%
    08:00 +29°C° 1.6 mm 0 m/s 754 mmHg 79%
    09:00 +32°C° 1.6 mm 1 m/s 754 mmHg 75%
    10:00 +33°C° 1.6 mm 1 m/s 754 mmHg 71%
    11:00 +32°C° 2.4 mm 1 m/s 754 mmHg 72%
    12:00 +32°C° 2.4 mm 1 m/s 754 mmHg 74%
    13:00 +32°C° 2.4 mm 1 m/s 753 mmHg 75%
    14:00 +32°C° 1.7 mm 1 m/s 753 mmHg 76%
    15:00 +31°C° 1.7 mm 1 m/s 753 mmHg 78%
    16:00 +31°C° 1.7 mm 1 m/s 753 mmHg 80%
    17:00 +30°C° 0.5 mm 1 m/s 753 mmHg 83%
    18:00 +29°C° 0.5 mm 1 m/s 754 mmHg 87%
    19:00 +28°C° 0.5 mm 1 m/s 754 mmHg 90%
    20:00 +28°C° 0.2 mm 1 m/s 755 mmHg 91%
    21:00 +28°C° 0.2 mm 1 m/s 755 mmHg 92%
    22:00 +28°C° 0.2 mm 1 m/s 756 mmHg 92%
    23:00 +28°C° 0.1 mm 1 m/s 755 mmHg 93%

    29 Mai, Mercredi

    Heure Température Précipitation Vent Pression Humidité
    00:00 +27°C° 0.1 mm 1 m/s 755 mmHg 93%
    01:00 +27°C° 0.1 mm 1 m/s 754 mmHg 93%
    02:00 +27°C° 0.1 mm 1 m/s 754 mmHg 93%
    03:00 +27°C° 0.1 mm 1 m/s 754 mmHg 93%
    04:00 +27°C° 0.1 mm 1 m/s 754 mmHg 93%
    05:00 +27°C° 0 mm 1 m/s 754 mmHg 91%
    06:00 +28°C° 0 mm 2 m/s 754 mmHg 90%
    07:00 +28°C° 0 mm 2 m/s 755 mmHg 88%
    08:00 +29°C° 0.5 mm 2 m/s 755 mmHg 85%
    09:00 +30°C° 0.5 mm 2 m/s 755 mmHg 83%
    10:00 +31°C° 0.5 mm 2 m/s 756 mmHg 80%
    11:00 +30°C° 1.7 mm 2 m/s 755 mmHg 82%
    12:00 +30°C° 1.7 mm 3 m/s 755 mmHg 83%
    13:00 +30°C° 1.7 mm 3 m/s 754 mmHg 85%
    14:00 +30°C° 1.3 mm 3 m/s 754 mmHg 86%
    15:00 +29°C° 1.3 mm 3 m/s 754 mmHg 87%
    16:00 +29°C° 1.3 mm 3 m/s 753 mmHg 88%
    17:00 +28°C° 0.4 mm 2 m/s 754 mmHg 90%
    18:00 +28°C° 0.4 mm 2 m/s 754 mmHg 92%
    19:00 +27°C° 0.4 mm 2 m/s 755 mmHg 95%
    20:00 +27°C° 0.1 mm 2 m/s 755 mmHg 95%
    21:00 +27°C° 0.1 mm 1 m/s 755 mmHg 95%
    22:00 +27°C° 0.1 mm 1 m/s 756 mmHg 96%
    23:00 +27°C° 0.2 mm 1 m/s 755 mmHg 96%

    30 Mai, Jeudi

    Heure Température Précipitation Vent Pression Humidité
    00:00 +27°C° 0.2 mm 1 m/s 755 mmHg 96%
    01:00 +26°C° 0.2 mm 1 m/s 755 mmHg 97%
    02:00 +26°C° 0.3 mm 1 m/s 755 mmHg 97%
    03:00 +26°C° 0.3 mm 1 m/s 754 mmHg 97%
    04:00 +26°C° 0.3 mm 1 m/s 754 mmHg 97%
    05:00 +27°C° 0.5 mm 1 m/s 755 mmHg 95%
    06:00 +27°C° 0.5 mm 2 m/s 755 mmHg 93%
    07:00 +28°C° 0.5 mm 2 m/s 756 mmHg 91%
    08:00 +28°C° 0.7 mm 2 m/s 756 mmHg 89%
    09:00 +29°C° 0.7 mm 2 m/s 756 mmHg 88%
    10:00 +29°C° 0.7 mm 3 m/s 756 mmHg 86%
    11:00 +30°C° 0.7 mm 3 m/s 755 mmHg 85%
    12:00 +30°C° 0.7 mm 3 m/s 754 mmHg 85%
    13:00 +30°C° 0.7 mm 3 m/s 754 mmHg 84%
    14:00 +30°C° 0.2 mm 3 m/s 753 mmHg 84%
    15:00 +30°C° 0.2 mm 3 m/s 753 mmHg 84%
    16:00 +30°C° 0.2 mm 3 m/s 753 mmHg 84%
    17:00 +29°C° 0.1 mm 3 m/s 753 mmHg 87%
    18:00 +28°C° 0.1 mm 2 m/s 754 mmHg 90%
    19:00 +27°C° 0.1 mm 1 m/s 754 mmHg 94%
    20:00 +27°C° 0 mm 1 m/s 755 mmHg 94%
    21:00 +27°C° 0 mm 1 m/s 755 mmHg 94%
    22:00 +25°C° 0 mm 0 m/s 755 mmHg 95%
    23:00 +25°C° 0.1 mm 0 m/s 755 mmHg 95%

    31 Mai, Vendredi

    Heure Température Précipitation Vent Pression Humidité
    00:00 +25°C° 0.1 mm 0 m/s 755 mmHg 95%
    01:00 +25°C° 0.1 mm 0 m/s 754 mmHg 95%
    02:00 +25°C° 0 mm 0 m/s 754 mmHg 95%
    03:00 +25°C° 0 mm 0 m/s 754 mmHg 95%
    04:00 +25°C° 0 mm 0 m/s 754 mmHg 96%
    05:00 +25°C° 0 mm 0 m/s 754 mmHg 92%
    06:00 +28°C° 0 mm 1 m/s 755 mmHg 89%
    07:00 +29°C° 0 mm 1 m/s 755 mmHg 86%
    08:00 +30°C° 0.1 mm 2 m/s 755 mmHg 81%
    09:00 +32°C° 0.1 mm 2 m/s 755 mmHg 76%
    10:00 +34°C° 0.1 mm 3 m/s 755 mmHg 70%
    11:00 +34°C° 0.7 mm 3 m/s 754 mmHg 71%
    12:00 +34°C° 0.7 mm 3 m/s 754 mmHg 72%
    13:00 +34°C° 0.7 mm 4 m/s 753 mmHg 73%
    14:00 +34°C° 0.3 mm 4 m/s 753 mmHg 73%
    15:00 +33°C° 0.3 mm 4 m/s 753 mmHg 74%
    16:00 +33°C° 0.3 mm 4 m/s 752 mmHg 75%
    17:00 +31°C° 0 mm 3 m/s 753 mmHg 80%
    18:00 +30°C° 0 mm 2 m/s 753 mmHg 86%
    19:00 +28°C° 0 mm 2 m/s 754 mmHg 91%
    20:00 +28°C° 0 mm 1 m/s 754 mmHg 93%
    21:00 +28°C° 0 mm 1 m/s 754 mmHg 95%
    22:00 +28°C° 0 mm 1 m/s 754 mmHg 96%
    23:00 +28°C° 0 mm 1 m/s 754 mmHg 96%
    Voir plus